AirNav   Air Wisconsin pilot careers
 
 1190 users online  

76T Bishop Airport
Decatur, Texas, USA

GOING TO DECATUR?


FAA INFORMATION EFFECTIVE 13 SEPTEMBER 2018

Location

FAA Identifier: 76T
Lat/Long: 33-16-09.0000N / 097-27-06.7000W
33-16.150000N / 097-27.111667W
33.2691667 / -97.4518611
(estimated)
Elevation: 888 ft. / 271 m (estimated)
Variation: 07E (1985)
From city: 6 miles E of DECATUR, TX
Time zone: UTC -5 (UTC -6 during Standard Time)
Zip code: 76234

Airport Operations

Airport use: Open to the public
Activation date: 11/1990
Control tower: no
ARTCC: FORT WORTH CENTER
FSS: FORT WORTH FLIGHT SERVICE STATION
NOTAMs facility: FTW (NOTAM-D service available)
Attendance: UNATNDD
Wind indicator: yes
Segmented circle: no

Airport Communications

CTAF: 122.9
WX AWOS-3 at LUD (7 nm W): 118.225 (940-627-2365)
WX ASOS at DTO (13 nm E): 119.325 (940-383-8457)
WX ASOS at AFW (18 nm S): PHONE 817-491-6188
WX AWOS-3 at XBP (20 nm W): 119.225 (940-683-8027)

Nearby radio navigation aids

VOR radial/distance  VOR name  Freq  Var
UKWr125/24.5BOWIE VORTAC117.1506E
FUZr323/26.6RANGER VORTAC115.7006E
TTTr313/31.7MAVERICK VOR/DME113.1006E
CVEr304/35.7COWBOY VOR/DME116.2006E

 
NDB name  Hdg/Dist  Freq  Var  ID
PINCK262/12.825704EDT -.. -
GRINDSTONE MOUNTAIN137/25.835604EGMZ --. -- --..

Airport Services

Parking: hangars and tiedowns
Airframe service: MAJOR
Powerplant service: MAJOR

Runway Information

Runway 17/35

Dimensions: 3730 x 170 ft. / 1137 x 52 m
Surface: turf, in fair condition
Gradient: N
RUNWAY 17  RUNWAY 35
Latitude: 33-16.457808N33-15.842607N
Longitude: 097-27.112595W097-27.110937W
Elevation: 888.0 ft.873.0 ft.
Gradient: 0.4% UP
Traffic pattern: leftleft
Runway heading: 173 magnetic, 180 true353 magnetic, 360 true
Obstructions: 12 ft. trees25 ft. trees, 20 ft. from runway, 125 ft. left of centerline

Airport Ownership and Management from official FAA records

Ownership: Privately-owned
Owner: TOM BISHOP
192 PR 2506
DECATUR, TX 76234
Phone 940-389-6100
Manager: TOM BISHOP
330 PR 2506
DECATUR, TX 76234
Phone 940-389-6100
ADDITIONAL PHONE: 940-389-6200

Airport Operational Statistics

Aircraft based on the field: 9
Single engine airplanes: 4
Gliders airplanes: 3
Ultralights: 2
    
Aircraft operations: avg 33/month *
75% local general aviation
25% transient general aviation
* for 12-month period ending 31 December 2015

Additional Remarks

RY MAY BE ROUGH DUE TO DROUGHT CONDS.
RY SOFT AFT HVY RAIN.
FOR RY CONDS CALL 940-389-6100.
FOR CD CTC REGIONAL APCH AT 972-615-2799.

Instrument Procedures

There are no published instrument procedures at 76T.

Some nearby airports with instrument procedures:

KLUD - Decatur Municipal Airport (7 nm W)
KDTO - Denton Enterprise Airport (13 nm E)
4T2 - Kenneth Copeland Airport (18 nm S)
KAFW - Fort Worth Alliance Airport (18 nm S)
KXBP - Bridgeport Municipal Airport (20 nm W)
 
Loc | Ops | Rwys | IFR | FBO | Links
Com | Nav | Svcs | Stats | Notes


 
Area around 76T (Bishop Airport)
 
Road maps at: MapQuest Bing Google
 
Aerial photo
No photo
 
Sectional chart

 
Airport distance calculator
Flying to Bishop Airport? Find the distance to fly.

From to 76T

Sunrise and sunset
Times for 25-Sep-2018
 Local
(UTC-5)
 Zulu
(UTC)
Morning civil twilight06:5611:56
Sunrise07:2112:21
Sunset19:2200:22
Evening civil twilight19:4700:47

Current date and time
Zulu (UTC)  25-Sep-2018 22:09:04
Local (UTC-5)  25-Sep-2018 17:09:04
 
METAR
KLUD 
7nm W 
118.22 940-927-2365
252155Z AUTO 00000KT 10SM SCT050 31/19 A2990 RMK AO2 T03090190
KDTO 
13nm E 
252153Z 15004KT 10SM SCT070 31/20 A2988 RMK AO2 SLP108 T03110200
KAFW 
19nm S 
252153Z 21010KT 10SM SCT055 32/18 A2987 RMK AO2 SLP101 T03220178
KXBP 
20nm W 
252155Z AUTO 17004KT 10SM CLR 31/18 A2990 RMK AO2 T03130178
TAF
KAFW 
19nm S 
251729Z 2518/2618 20009KT P6SM SCT025 FM260800 36017KT P6SM VCSH BKN012
NOTAMs
Click for the latest NOTAMs
NOTAMs are issued by the DoD/FAA and will open in a separate window not controlled by AirNav.

 

 
 

Would you like to see your business listed on this page?

 If your business provides an interesting product or service to pilots, flight crews, aircraft, or users of the Bishop Airport, you should consider listing it here.  To start the listing process, click on the button below
 
Add a business
 

Other Pages about Bishop Airport

Update a link
 
Copyright © AirNav, LLC. All rights reserved. Privacy Policy  Contact